Simultaneous Nadir Overpasses (SNOs) Predictions

Prediction of SNOs between GOES-16 and AQUA Satellite Orbit:

Table of predicted SNOs for the next 14.0 days since TLE Epoch: 1/9/2021
Index Date Time (GOES-16) GOES-16 Lat,Lon AQUA Lat,Lon Distance(km) Time Diff (sec)
1 01/10/2021 06:17:16 -0.01, -75.18 -0.90, -70.92 483.94 80
2 01/10/2021 18:38:40 0.01, -75.19 -0.17, -76.12 105.66 80
3 01/12/2021 18:29:09 0.02, -75.19 0.44, -73.15 231.03 80
4 01/13/2021 06:50:23 -0.02, -75.19 0.66, -78.31 355.51 80
5 01/15/2021 06:38:12 -0.03, -75.20 -0.01, -75.36 17.85 80
6 01/17/2021 06:23:20 -0.03, -75.22 -0.62, -72.40 320.99 80
7 01/17/2021 18:44:44 0.03, -75.23 -0.50, -77.58 268.20 80
8 01/19/2021 18:35:13 0.03, -75.26 0.18, -74.64 71.72 80
9 01/21/2021 18:23:01 0.03, -75.30 0.81, -71.68 412.05 80
10 01/22/2021 06:44:16 -0.04, -75.30 0.30, -76.83 173.38 80
